Track STARLINK-4344 now! 10-day predictions STARLINK-4344 is classified as:
1 53072U 22077AF 22220.91667824 -.01215399 00000-0 -26366-1 0 9992 2 53072 97.6555 40.7949 0001947 62.4540 62.7689 15.47136297 1308